Time,TemperatureF,DewpointF,PressureIn,WindDirection,WindDirectionDegrees,WindSpeedMPH,WindSpeedGustMPH,Humidity,HourlyPrecipIn,Conditions,Clouds,dailyrainin,SoftwareType,DateUTC
2013-10-13 00:10:00,76.2,74.0,29.88,South,174,0.0,0.0,91,0.00,,,0.00,weatherlink.com 1.10,2013-10-13 04:10:00,
2013-10-13 00:25:00,76.3,74.0,29.88,South,174,0.0,1.0,91,0.00,,,0.00,weatherlink.com 1.10,2013-10-13 04:25:00,
2013-10-13 00:40:00,76.1,73.0,29.87,South,173,0.0,1.0,91,0.00,,,0.00,weatherlink.com 1.10,2013-10-13 04:40:00,
2013-10-13 00:55:00,76.0,73.0,29.86,SSE,168,0.0,0.0,91,0.00,,,0.00,weatherlink.com 1.10,2013-10-13 04:55:00,
2013-10-13 01:11:00,75.9,73.0,29.86,SSE,168,0.0,1.0,91,0.00,,,0.00,weatherlink.com 1.10,2013-10-13 05:11:00,
2013-10-13 01:26:00,75.6,73.0,29.85,SE,142,0.0,1.0,91,0.00,,,0.00,weatherlink.com 1.10,2013-10-13 05:26:00,
2013-10-13 01:41:00,75.3,73.0,29.84,SE,142,0.0,0.0,91,0.00,,,0.00,weatherlink.com 1.10,2013-10-13 05:41:00,
2013-10-13 01:56:00,75.0,73.0,29.83,SE,143,0.0,0.0,92,0.00,,,0.00,weatherlink.com 1.10,2013-10-13 05:56:00,
2013-10-13 02:11:00,74.8,72.0,29.82,SE,143,0.0,0.0,92,0.00,,,0.00,weatherlink.com 1.10,2013-10-13 06:11:00,
2013-10-13 02:26:00,74.9,73.0,29.82,SE,143,0.0,1.0,92,0.00,,,0.00,weatherlink.com 1.10,2013-10-13 06:26:00,
2013-10-13 02:41:00,74.8,72.0,29.82,SE,142,0.0,0.0,92,0.00,,,0.00,weatherlink.com 1.10,2013-10-13 06:41:00,
2013-10-13 02:56:00,74.9,73.0,29.82,SE,143,0.0,1.0,92,0.00,,,0.00,weatherlink.com 1.10,2013-10-13 06:56:00,
2013-10-13 03:11:00,74.9,73.0,29.83,SE,143,0.0,0.0,92,0.00,,,0.00,weatherlink.com 1.10,2013-10-13 07:11:00,
2013-10-13 03:26:00,74.7,72.0,29.82,SE,142,0.0,0.0,92,0.00,,,0.00,weatherlink.com 1.10,2013-10-13 07:26:00,
2013-10-13 03:41:00,74.6,72.0,29.83,SE,143,0.0,1.0,92,0.00,,,0.00,weatherlink.com 1.10,2013-10-13 07:41:00,
2013-10-13 03:56:00,74.7,72.0,29.83,SE,144,0.0,1.0,92,0.00,,,0.00,weatherlink.com 1.10,2013-10-13 07:56:00,
2013-10-13 04:11:00,74.7,72.0,29.83,SE,139,0.0,1.0,92,0.00,,,0.00,weatherlink.com 1.10,2013-10-13 08:11:00,
2013-10-13 04:41:00,74.4,72.0,29.83,SE,134,0.0,1.0,92,0.00,,,0.00,weatherlink.com 1.10,2013-10-13 08:41:00,
2013-10-13 04:56:00,74.0,72.0,29.84,SE,134,0.0,0.0,93,0.00,,,0.00,weatherlink.com 1.10,2013-10-13 08:56:00,
2013-10-13 05:11:00,74.0,72.0,29.84,SE,134,0.0,0.0,93,0.00,,,0.00,weatherlink.com 1.10,2013-10-13 09:11:00,
2013-10-13 05:26:00,74.3,72.0,29.84,SE,134,0.0,1.0,93,0.00,,,0.00,weatherlink.com 1.10,2013-10-13 09:26:00,
2013-10-13 05:41:00,74.5,72.0,29.86,ESE,123,1.0,1.0,93,0.00,,,0.00,weatherlink.com 1.10,2013-10-13 09:41:00,
2013-10-13 05:56:00,74.8,72.0,29.86,ESE,110,0.0,1.0,92,0.00,,,0.00,weatherlink.com 1.10,2013-10-13 09:56:00,
2013-10-13 06:11:00,74.6,73.0,29.86,SE,143,0.0,1.0,93,0.00,,,0.00,weatherlink.com 1.10,2013-10-13 10:11:00,
2013-10-13 06:26:00,74.8,73.0,29.86,SE,143,0.0,1.0,93,0.00,,,0.00,weatherlink.com 1.10,2013-10-13 10:26:00,
2013-10-13 06:41:00,75.1,73.0,29.86,SE,143,0.0,0.0,93,0.00,,,0.00,weatherlink.com 1.10,2013-10-13 10:41:00,
2013-10-13 06:56:00,75.5,73.0,29.87,WNW,284,0.0,2.0,93,0.00,,,0.00,weatherlink.com 1.10,2013-10-13 10:56:00,
2013-10-13 07:11:00,77.2,75.0,29.87,WNW,282,0.0,1.0,91,0.00,,,0.00,weatherlink.com 1.10,2013-10-13 11:11:00,
2013-10-13 07:26:00,79.0,75.0,29.87,WNW,283,0.0,1.0,88,0.00,,,0.00,weatherlink.com 1.10,2013-10-13 11:26:00,
2013-10-13 07:41:00,82.7,76.0,29.88,West,262,0.0,1.0,81,0.00,,,0.00,weatherlink.com 1.10,2013-10-13 11:41:00,
2013-10-13 07:56:00,83.4,77.0,29.88,NW,313,0.0,1.0,80,0.00,,,0.00,weatherlink.com 1.10,2013-10-13 11:56:00,
2013-10-13 08:11:00,83.4,76.0,29.89,ENE,75,1.0,1.0,79,0.00,,,0.00,weatherlink.com 1.10,2013-10-13 12:11:00,
2013-10-13 08:26:00,83.4,76.0,29.90,East,80,0.0,2.0,79,0.00,,,0.00,weatherlink.com 1.10,2013-10-13 12:26:00,
2013-10-13 08:41:00,84.0,77.0,29.90,NE,35,2.0,4.0,79,0.00,,,0.00,weatherlink.com 1.10,2013-10-13 12:41:00,
2013-10-13 08:56:00,84.8,78.0,29.90,SE,142,0.0,1.0,79,0.00,,,0.00,weatherlink.com 1.10,2013-10-13 12:56:00,
2013-10-13 09:11:00,86.4,78.0,29.90,SE,139,1.0,2.0,76,0.00,,,0.00,weatherlink.com 1.10,2013-10-13 13:11:00,
2013-10-13 09:26:00,87.1,78.0,29.90,East,94,0.0,2.0,74,0.00,,,0.00,weatherlink.com 1.10,2013-10-13 13:26:00,
2013-10-13 09:42:00,87.2,78.0,29.90,NNE,31,1.0,8.0,75,0.00,,,0.00,weatherlink.com 1.10,2013-10-13 13:42:00,
2013-10-13 09:57:00,86.9,78.0,29.90,ENE,61,3.0,5.0,74,0.00,,,0.00,weatherlink.com 1.10,2013-10-13 13:57:00,
2013-10-13 10:12:00,86.3,78.0,29.90,ESE,108,2.0,6.0,75,0.00,,,0.00,weatherlink.com 1.10,2013-10-13 14:12:00,
2013-10-13 10:27:00,88.9,79.0,29.90,SE,128,2.0,4.0,72,0.00,,,0.00,weatherlink.com 1.10,2013-10-13 14:27:00,
2013-10-13 10:42:00,89.3,77.0,29.89,ENE,77,6.0,8.0,67,0.00,,,0.00,weatherlink.com 1.10,2013-10-13 14:42:00,
2013-10-13 10:57:00,87.1,76.0,29.89,East,87,6.0,7.0,69,0.00,,,0.00,weatherlink.com 1.10,2013-10-13 14:57:00,
2013-10-13 11:12:00,87.8,77.0,29.88,ENE,77,7.0,7.0,70,0.00,,,0.00,weatherlink.com 1.10,2013-10-13 15:12:00,
2013-10-13 11:27:00,87.4,79.0,29.87,SSE,149,3.0,7.0,75,0.00,,,0.00,weatherlink.com 1.10,2013-10-13 15:27:00,
2013-10-13 11:42:00,90.1,79.0,29.87,SE,141,4.0,6.0,69,0.00,,,0.00,weatherlink.com 1.10,2013-10-13 15:42:00,
2013-10-13 11:57:00,91.9,77.0,29.86,SE,129,4.0,8.0,61,0.00,,,0.00,weatherlink.com 1.10,2013-10-13 15:57:00,
2013-10-13 12:12:00,91.6,75.0,29.85,ESE,120,2.0,9.0,59,0.00,,,0.00,weatherlink.com 1.10,2013-10-13 16:12:00,
2013-10-13 12:27:00,89.9,75.0,29.86,SSE,153,3.0,7.0,62,0.00,,,0.00,weatherlink.com 1.10,2013-10-13 16:27:00,
2013-10-13 12:42:00,89.5,75.0,29.85,South,181,2.0,9.0,63,0.00,,,0.00,weatherlink.com 1.10,2013-10-13 16:42:00,
2013-10-13 12:57:00,90.2,74.0,29.84,ESE,104,3.0,9.0,60,0.00,,,0.00,weatherlink.com 1.10,2013-10-13 16:57:00,
2013-10-13 13:12:00,89.3,75.0,29.84,SSE,155,4.0,9.0,62,0.00,,,0.00,weatherlink.com 1.10,2013-10-13 17:12:00,
2013-10-13 13:27:00,89.6,75.0,29.84,SSE,153,3.0,7.0,63,0.00,,,0.00,weatherlink.com 1.10,2013-10-13 17:27:00,
2013-10-13 13:42:00,90.7,76.0,29.84,South,174,3.0,7.0,63,0.00,,,0.00,weatherlink.com 1.10,2013-10-13 17:42:00,
2013-10-13 13:57:00,90.4,74.0,29.82,East,87,4.0,7.0,59,0.00,,,0.00,weatherlink.com 1.10,2013-10-13 17:57:00,
2013-10-13 14:12:00,90.4,76.0,29.82,SSE,152,2.0,4.0,62,0.00,,,0.00,weatherlink.com 1.10,2013-10-13 18:12:00,
2013-10-13 14:27:00,89.7,76.0,29.82,ENE,74,3.0,7.0,64,0.00,,,0.00,weatherlink.com 1.10,2013-10-13 18:27:00,
2013-10-13 14:42:00,88.4,78.0,29.81,ENE,73,5.0,7.0,71,0.00,,,0.00,weatherlink.com 1.10,2013-10-13 18:42:00,
2013-10-13 14:57:00,87.4,77.0,29.82,ENE,73,5.0,13.0,71,0.00,,,0.00,weatherlink.com 1.10,2013-10-13 18:57:00,
2013-10-13 15:12:00,85.4,74.0,29.82,East,79,3.0,9.0,68,0.00,,,0.00,weatherlink.com 1.10,2013-10-13 19:12:00,
2013-10-13 15:27:00,82.8,75.0,29.83,SE,146,3.0,10.0,78,0.02,,,0.02,weatherlink.com 1.10,2013-10-13 19:27:00,
2013-10-13 15:42:00,81.9,76.0,29.83,WSW,257,0.0,3.0,83,0.02,,,0.02,weatherlink.com 1.10,2013-10-13 19:42:00,
2013-10-13 15:57:00,82.9,77.0,29.82,WSW,256,0.0,1.0,83,0.02,,,0.02,weatherlink.com 1.10,2013-10-13 19:57:00,
2013-10-13 16:12:00,82.6,77.0,29.82,SW,236,0.0,3.0,84,0.02,,,0.02,weatherlink.com 1.10,2013-10-13 20:12:00,
2013-10-13 16:27:00,82.8,77.0,29.82,WSW,246,1.0,2.0,83,0.00,,,0.02,weatherlink.com 1.10,2013-10-13 20:27:00,
2013-10-13 16:42:00,82.8,77.0,29.82,West,269,0.0,1.0,83,0.00,,,0.02,weatherlink.com 1.10,2013-10-13 20:42:00,
2013-10-13 16:57:00,82.6,77.0,29.83,ESE,115,1.0,3.0,84,0.00,,,0.02,weatherlink.com 1.10,2013-10-13 20:57:00,
2013-10-13 17:12:00,82.2,78.0,29.83,ESE,121,0.0,2.0,86,0.00,,,0.02,weatherlink.com 1.10,2013-10-13 21:12:00,
2013-10-13 17:27:00,82.1,78.0,29.82,ESE,123,0.0,1.0,87,0.00,,,0.02,weatherlink.com 1.10,2013-10-13 21:27:00,
2013-10-13 17:42:00,81.3,78.0,29.83,SSE,167,0.0,5.0,89,0.00,,,0.02,weatherlink.com 1.10,2013-10-13 21:42:00,
2013-10-13 17:57:00,80.7,77.0,29.83,SE,139,0.0,1.0,88,0.00,,,0.02,weatherlink.com 1.10,2013-10-13 21:57:00,
2013-10-13 18:12:00,80.4,75.0,29.82,South,187,0.0,1.0,83,0.00,,,0.02,weatherlink.com 1.10,2013-10-13 22:12:00,
2013-10-13 18:27:00,79.8,75.0,29.83,SSE,148,1.0,6.0,86,0.00,,,0.02,weatherlink.com 1.10,2013-10-13 22:27:00,
2013-10-13 18:42:00,79.1,75.0,29.83,SSE,156,1.0,6.0,87,0.00,,,0.02,weatherlink.com 1.10,2013-10-13 22:42:00,
2013-10-13 18:57:00,79.0,74.0,29.84,SSE,162,0.0,5.0,83,0.00,,,0.02,weatherlink.com 1.10,2013-10-13 22:57:00,
2013-10-13 19:12:00,79.5,73.0,29.85,SSE,158,2.0,4.0,80,0.00,,,0.02,weatherlink.com 1.10,2013-10-13 23:12:00,
2013-10-13 19:27:00,79.7,73.0,29.85,SE,142,1.0,2.0,80,0.00,,,0.02,weatherlink.com 1.10,2013-10-13 23:27:00,
2013-10-13 19:42:00,79.5,74.0,29.85,SSE,158,0.0,3.0,82,0.00,,,0.02,weatherlink.com 1.10,2013-10-13 23:42:00,
2013-10-13 19:57:00,78.8,74.0,29.86,ESE,123,0.0,3.0,84,0.00,,,0.02,weatherlink.com 1.10,2013-10-13 23:57:00,
2013-10-13 20:12:00,78.6,74.0,29.86,SSE,165,0.0,2.0,85,0.00,,,0.02,weatherlink.com 1.10,2013-10-14 00:12:00,
2013-10-13 20:27:00,78.5,74.0,29.87,SSE,159,0.0,1.0,86,0.00,,,0.02,weatherlink.com 1.10,2013-10-14 00:27:00,
2013-10-13 20:42:00,78.4,74.0,29.87,SSE,159,0.0,0.0,86,0.00,,,0.02,weatherlink.com 1.10,2013-10-14 00:42:00,
2013-10-13 20:57:00,77.9,74.0,29.88,SSE,160,0.0,1.0,87,0.00,,,0.02,weatherlink.com 1.10,2013-10-14 00:57:00,
2013-10-13 21:12:00,77.9,74.0,29.88,SSE,160,0.0,0.0,88,0.00,,,0.02,weatherlink.com 1.10,2013-10-14 01:12:00,
2013-10-13 21:27:00,77.9,74.0,29.89,SSE,160,0.0,0.0,88,0.00,,,0.02,weatherlink.com 1.10,2013-10-14 01:27:00,
2013-10-13 21:42:00,77.6,74.0,29.89,South,191,0.0,1.0,89,0.00,,,0.02,weatherlink.com 1.10,2013-10-14 01:42:00,
2013-10-13 21:57:00,77.6,74.0,29.88,South,188,0.0,0.0,89,0.00,,,0.02,weatherlink.com 1.10,2013-10-14 01:57:00,
2013-10-13 22:12:00,77.7,74.0,29.89,SSE,166,0.0,0.0,89,0.00,,,0.02,weatherlink.com 1.10,2013-10-14 02:12:00,
2013-10-13 22:27:00,77.4,74.0,29.89,WSW,240,0.0,1.0,90,0.00,,,0.02,weatherlink.com 1.10,2013-10-14 02:27:00,
2013-10-13 22:42:00,77.1,74.0,29.89,SSW,195,0.0,1.0,90,0.00,,,0.02,weatherlink.com 1.10,2013-10-14 02:42:00,
2013-10-13 22:57:00,77.3,74.0,29.89,SE,138,0.0,2.0,90,0.00,,,0.02,weatherlink.com 1.10,2013-10-14 02:57:00,
2013-10-13 23:12:00,77.0,74.0,29.89,SE,138,0.0,1.0,91,0.00,,,0.02,weatherlink.com 1.10,2013-10-14 03:12:00,
2013-10-13 23:43:00,76.9,74.0,29.88,West,263,0.0,1.0,91,0.00,,,0.02,weatherlink.com 1.10,2013-10-14 03:43:00,
2013-10-13 23:58:00,76.4,74.0,29.88,WSW,256,0.0,2.0,91,0.00,,,0.02,weatherlink.com 1.10,2013-10-14 03:58:00,